This is the latest recevied weather packets stored in our database for station/object F4ELU-13. If no packets are shown the sender has not sent any weather packets the latest 10 day(s).
| Time | Temp. | Humidity | Pressure | Rain* | Wind** | Luminosity | Snow |
|---|---|---|---|---|---|---|---|
| 1777826163 | 17.78° C | 66% | 1012.4 hPa | 0 mm | - | - | - |
| 1777825623 | 18.33° C | 66% | 1012.5 hPa | 0 mm | - | - | - |
| 1777825083 | 18.33° C | 64% | 1012.6 hPa | 0 mm | - | - | - |
| 1777824543 | 18.33° C | 64% | 1012.6 hPa | 0 mm | - | - | - |
| 1777824003 | 18.33° C | 63% | 1012.8 hPa | 0 mm | - | - | - |
| 1777823643 | 18.33° C | 63% | 1012.9 hPa | 0 mm | - | - | - |
| 1777823103 | 18.33° C | 62% | 1012.9 hPa | 0 mm | - | - | - |
| 1777822563 | 18.33° C | 63% | 1012.9 hPa | 0 mm | - | - | - |
| 1777822023 | 18.33° C | 64% | 1012.9 hPa | 0 mm | - | - | - |
| 1777821483 | 18.33° C | 63% | 1013.1 hPa | 0 mm | - | - | - |
| 1777820943 | 19.44° C | 61% | 1013 hPa | 0 mm | - | - | - |
| 1777820403 | 19.44° C | 61% | 1013.3 hPa | 0 mm | - | - | - |
| 1777820043 | 18.89° C | 61% | 1013.4 hPa | 0 mm | - | - | - |
| 1777819503 | 19.44° C | 66% | 1013.5 hPa | 0 mm | - | - | - |
| 1777818963 | 19.44° C | 68% | 1013.6 hPa | 0 mm | - | - | - |
| 1777818423 | 18.33° C | 69% | 1013.8 hPa | 0 mm | - | - | - |
| 1777817883 | 17.78° C | 72% | 1013.9 hPa | 0 mm | - | - | - |
| 1777817344 | 17.78° C | 70% | 1014 hPa | 0 mm | - | - | - |
| 1777816803 | 17.78° C | 75% | 1014.3 hPa | 0 mm | - | - | - |
| 1777816443 | 17.22° C | 73% | 1014.3 hPa | 0 mm | - | - | - |
| 1777815903 | 17.22° C | 74% | 1014.6 hPa | 0 mm | - | - | - |
| 1777815363 | 16.67° C | 78% | 1014.7 hPa | 0 mm | - | - | - |
| 1777814823 | 16.11° C | 76% | 1014.8 hPa | 0.25 mm | - | - | - |
| 1777814283 | 15.56° C | 77% | 1014.9 hPa | 0.25 mm | - | - | - |
| 1777813743 | 15° C | 78% | 1015 hPa | 0.25 mm | - | - | - |
* Rain latest hour (hover to see other rain measurements)
** Current wind speed in m/s (hover to see current wind gust speed)